Location: Newark
(43.4306°N, 0.3089°E)
Time: 17:24:36
(UTC+00:00)

SR - Pass Details

Date: 26 August 2019
Orbit: 575 x 881 km, 66.7° (Epoch: 16 October)

Event Time Altitude Azimuth Distance (km) Brightness Sun altitude
Rises 21:58:18 0° 310° (NW) 3,346 ? -29.5°
Reaches altitude 10° 22:01:46 10° 289° (WNW) 2,459 ? -29.9°
Maximum altitude 22:04:51 15° 256° (WSW) 2,155 ? -30.2°
Enters shadow 22:06:16 14° 239° (WSW) 2,239 ? -30.3°
